Location: Recife
(8.0585°S, 34.8848°W)
Time: 21:20:40
(UTC-03:00)

A-11 Canister half - Pass Details

Date: 14 April 2026
Orbit: 1523 x 1684 km, 47.3° (Epoch: 16 May)

Event Time Altitude Azimuth Distance (km) Brightness Sun altitude
Rises 08:40:02 0° 342° (NNW) 4,823 11.7 46.5°
Reaches altitude 10° 08:43:39 10° 352° (N) 3,814 11.3 47.3°
Maximum altitude 08:51:56 32° 51° (NE) 2,439 11.8 49.2°
Drops below altitude 10° 08:59:59 10° 110° (ESE) 3,725 11.6 51.0°
Sets 09:03:26 0° 120° (ESE) 4,695 11.8 51.8°
